x

West Santa Barbara 38 Nm West Of Santa Barbara, Ca (46054) Wave Buoy

10:50 - Thu 8th Dec 2016 All times are PST. -8 hours from GMT.

  • Sig Wave height 2.3ft
  • Swell Direction
  • Peak Period 16s
  • Average Period 8s
  • Wind
    7mph, 9mph gusts
  • Sea Temp 56°f
  • Luft Temp 56°f
  • Sea Pressure 1025mb
  • West Santa Barbara  38 Nm West Of Santa Barbara, Ca
  • West Santa Barbara  38 Nm West Of Santa Barbara, Ca

More Historic Weather Station data

Upgrade to MSW Pro to gain access to the past 30 days of data for over 8000 Wavebouys and Weather Stations around the globe.

Join Pro

Comparision Forecast

View Surf forecast
   
Do 12/08 10:50 2.5ft 16s 8s 7 9 mph 1025mb 56f 56f
9:50 2.5ft 11s 8s 4
mph
1024.9mb 56f 56f
8:50 3ft 11s 8s 2
mph
1024.4mb 55f 56f
7:50 3ft 12s 8s 2 4 mph 1023.7mb 56f 55f
6:50 4ft 10s 8s  -  2 mph 1023mb 56f 55f
5:50 4ft 13s 8s  -  2 mph 1022.4mb 56f 55f
4:50 3.5ft 12s 8s 2 4 mph 1021.7mb 56f 55f
3:50 4.5ft 13s 8s  -  2 mph 1021.9mb 55f 56f
2:50 4.5ft 13s 8s 4
mph
1022.3mb 55f 56f
1:50 4.5ft 13s 8s 2 4 mph 1022.1mb 55f 55f
12:50 5ft 13s 8s 7 9 mph 1021.8mb 55f 55f
Mi 12/07 11:50 5ft 13s 8s 9
mph
1021.9mb 55f 55f
7:50 6.5ft 11s 7s 16 18 mph 1020.9mb 55f 55f
6:50 7ft 13s 7s 16 20 mph 1020.8mb 55f 55f
5:50 6.5ft 14s 7s 18 20 mph 1020.2mb 55f 55f
4:50 6ft 13s 7s 18 20 mph 1019.6mb 55f 55f
3:50 7ft 13s 8s 16 18 mph 1019.5mb 56f 56f
2:50 6ft 13s 7s 16 18 mph 1019.5mb 56f 55f
1:50 7ft 13s 7s 20 22 mph 1019.4mb 56f 55f
12:50 7ft 14s 7s 22 27 mph 1019.7mb 56f 55f
11:50 7.5ft 14s 7s 22 27 mph 1020.1mb 56f 55f
10:50 7ft 14s 7s 22 27 mph 1020.3mb 56f 55f
9:50 6.5ft 14s 7s 22 25 mph 1020.3mb 56f 54f
8:50 7ft 13s 7s 20 25 mph 1019.5mb 56f 54f
7:50 7ft 11s 7s 20 22 mph 1018.8mb 56f 54f
6:50 8ft 11s 7s 20 22 mph 1018mb 57f 54f
5:50 8ft 12s 7s 20 25 mph 1017.8mb 57f 54f
4:50 7.5ft 8s 7s 20 25 mph 1017.6mb 57f 54f
3:50 7ft 8s 7s 20 25 mph 1017.8mb 57f 54f
2:50 7.5ft 11s 7s 20 25 mph 1017.8mb 57f 54f
1:50 8ft 8s 7s 22 27 mph 1017.6mb 56f 55f
12:50 8.5ft 12s 7s 22 25 mph 1017.5mb 56f 55f
Di 12/06 11:50 9ft 13s 7s 22 27 mph 1017.4mb 57f 56f
10:50 8.5ft 13s 7s 22 27 mph 1017.6mb 57f 56f
9:50 9ft 8s 7s 27 31 mph 1017.1mb 57f 55f
8:50 10ft 9s 7s 25 29 mph 1016.9mb 56f 56f
6:50 9.5ft 8s 7s 27 31 mph 1016.3mb 56f 56f
5:50 10ft 13s 7s 27 31 mph 1016mb 56f 56f
4:50 9ft 13s 7s 25 31 mph 1015.8mb 57f 56f
3:50 10ft 14s 7s 22 29 mph 1015.4mb 57f 56f
2:50 9ft 14s 7s 25 29 mph 1015mb 57f 56f
1:50 9ft 14s 7s 22 29 mph 1014.9mb 56f 55f
12:50 9.5ft 12s 8s 25 29 mph 1015.2mb 56f 55f
11:50 9ft 14s 7s 22 25 mph 1016.1mb 58f 55f
10:50 9.5ft 15s 7s 20 25 mph 1017.1mb 58f 55f
9:50 9.5ft 12s 8s 22 27 mph 1017.1mb 58f 55f
8:50 8.5ft 13s 7s 20 22 mph 1016.6mb 58f 56f
7:50 9ft 13s 7s 20 25 mph 1016.2mb 58f 55f
6:50 8.5ft 12s 7s 20 22 mph 1015.9mb 58f 55f
5:50 10ft 14s 8s 20 25 mph 1015.2mb 58f 55f
4:50 9.5ft 15s 7s 22 27 mph 1014.8mb 58f 55f
3:50 10ft 13s 8s 20 25 mph 1014.7mb 58f 56f
2:50 10ft 15s 8s 22 27 mph 1014.8mb 58f 56f
1:50 11ft 14s 8s 22 27 mph 1014.7mb 58f 56f
12:50 10ft 14s 7s 25 29 mph 1014.8mb 58f 56f
Mo 12/05 11:50 10ft 14s 7s 20 25 mph 1015.1mb 58f 56f
10:50 10ft 15s 7s 25 31 mph 1014.4mb 57f 56f
9:50 9ft 8s 7s 25 29 mph 1014.6mb 57f 56f
8:50 10.5ft 14s 7s 25 31 mph 1014.2mb 57f 56f
7:50 10ft 14s 7s 29 36 mph 1013.3mb 57f 56f
6:50 9.5ft 15s 7s 29 36 mph 1013.2mb 58f 56f
5:50 10ft 8s 7s 22 27 mph 1013.3mb 58f 56f
4:50 11ft 15s 7s 31 36 mph 1013.1mb 58f 56f
3:50 11ft 14s 7s 31 36 mph 1013.6mb 58f 56f
2:50 11ft 14s 7s 31 36 mph 1013.3mb 57f 56f
1:50 11ft 13s 7s 29 36 mph 1013.4mb 58f 57f
12:50 10ft 15s 7s 22 29 mph 1014.2mb 57f 57f
11:50 10.5ft 15s 7s 27 31 mph 1014.4mb 57f 57f
10:50 11ft 15s 7s 25 31 mph 1015.2mb 57f 57f
9:50 10.5ft 14s 7s 27 34 mph 1015.9mb 57f 57f
8:50 10ft 15s 7s 27 31 mph 1015.3mb 57f 57f
7:50 11ft 15s 8s 27 34 mph 1014.7mb 57f 57f
6:50 10.5ft 15s 7s 27 31 mph 1014.4mb 58f 57f
5:50 11ft 14s 8s 29 36 mph 1014.2mb 57f 57f
4:50 10ft 15s 7s 27 31 mph 1014.1mb 57f 57f
3:50 12ft 15s 8s 27 31 mph 1014.5mb 57f 57f
2:50 11ft 16s 8s 25 29 mph 1015.1mb 57f 57f
1:50 10.5ft 16s 8s 22 29 mph 1015.7mb 57f 57f
12:50 11ft 15s 8s 25 31 mph 1015.6mb 57f 58f
So 12/04 11:50 10.5ft 14s 8s 25 31 mph 1015.8mb 57f 58f
10:50 10ft 15s 7s 25 29 mph 1015.8mb 57f 58f
9:50 10ft 16s 7s 22 29 mph 1016mb 57f 58f
8:50 10.5ft 16s 8s 27 34 mph 1015.6mb 57f 58f